Weather History for Molokai, HI

Change the Weather History Date:

Monday, March 3, 2014

  Actual Average Record
Temperature  
Mean Temperature 68 °F -  
Max Temperature 73 °F 78 °F 86 °F (1981)
Min Temperature 62 °F 63 °F 48 °F (1987)
Cooling Degree Days 2    
Growing Degree Days 18 (Base 50)    
Moisture  
Dew Point 63 °F    
Average Humidity 87    
Maximum Humidity 100    
Minimum Humidity 64    
Precipitation  
Precipitation 0.17 in - - ()
Sea Level Pressure  
Sea Level Pressure 29.91 in    
Wind  
Wind Speed 4 mph (WNW)    
Max Wind Speed 9 mph    
Max Gust Speed -    
Visibility 8 miles    
Events Rain    
Averages and records for this station are not official NWS values.
T = Trace of Precipitation, MM = Missing Value Source: NWS Daily Summary

Daily Weather History Graph

Daily Weather History Graph

Search for Another Location

Airport:

Trip Planner

Search our weather history database for the weather conditions in past years. The results will help you decide how hot, cold, wet, or windy it might be!

Date:

Astronomy

Mar. 03, 2014 Rise Set
Actual Time 6:47 AM HST 6:33 PM HST
Civil Twilight 6:24 AM HST 6:55 PM HST
Nautical Twilight 5:59 AM HST 7:21 PM HST
Astronomical Twilight 5:33 AM HST 7:47 PM HST
Moon 8:27 AM HST (3/3) 9:19 PM HST (3/3)
Length of Visible Light 12h 31m
Length of Day
11h 46m
Waxing Crescent, 9% of the Moon is Illuminated
Mar 3
Waxing Crescent
Mar 8
First Quarter
Mar 16
Full
Mar 23
Last Quarter
Mar 30
New

Hourly Weather History & Observations

Time (HST) Temp. Dew Point Humidity Pressure Visibility Wind Dir Wind Speed Gust Speed Precip Events Conditions
12:02 AM 66.2 °F 66.2 °F 100% 29.89 in 8.0 mi Calm Calm - 0.00 in Rain Light Rain
12:14 AM 66.2 °F 66.2 °F 100% 29.87 in 8.0 mi East 6.9 mph - 0.00 in   Mostly Cloudy
12:33 AM 66.2 °F 66.2 °F 100% 29.89 in 3.0 mi WSW 3.5 mph - 0.01 in Rain Heavy Rain
12:40 AM 66.2 °F 66.2 °F 100% 29.85 in 2.0 mi Calm Calm - 0.05 in Rain Heavy Rain
12:54 AM 66.0 °F 66.0 °F 100% 29.92 in 4.0 mi West 9.2 mph - 0.14 in Rain Light Rain
1:36 AM 66.2 °F 66.2 °F 100% 29.86 in 8.0 mi WNW 5.8 mph - 0.03 in   Mostly Cloudy
1:54 AM 66.0 °F 66.0 °F 100% 29.89 in 7.0 mi North 3.5 mph - 0.03 in   Clear
2:54 AM 66.0 °F 66.0 °F 100% 29.87 in 8.0 mi WNW 9.2 mph - N/A   Clear
3:54 AM 66.0 °F 66.0 °F 100% 29.87 in 7.0 mi NW 4.6 mph - N/A   Scattered Clouds
4:54 AM 66.0 °F 64.9 °F 96% 29.86 in 8.0 mi NW 4.6 mph - N/A   Partly Cloudy
5:54 AM 64.0 °F 63.0 °F 96% 29.87 in 8.0 mi Calm Calm - N/A   Clear
6:54 AM 62.1 °F 62.1 °F 100% 29.92 in 7.0 mi Calm Calm - N/A   Mostly Cloudy
7:54 AM 66.0 °F 66.0 °F 100% 29.94 in 8.0 mi Calm Calm - N/A   Mostly Cloudy
8:54 AM 71.1 °F 64.0 °F 78% 29.94 in 10.0 mi West 3.5 mph - N/A   Mostly Cloudy
9:54 AM 73.0 °F 62.1 °F 68% 29.95 in 10.0 mi WNW 4.6 mph - N/A   Mostly Cloudy
10:54 AM 73.9 °F 62.1 °F 66% 29.94 in 10.0 mi Variable 6.9 mph - N/A   Clear
11:54 AM 72.0 °F 61.0 °F 68% 29.93 in 10.0 mi West 5.8 mph - N/A   Clear
12:54 PM 72.0 °F 62.1 °F 71% 29.91 in 10.0 mi NW 5.8 mph - N/A   Overcast
1:54 PM 72.0 °F 62.1 °F 71% 29.91 in 10.0 mi WNW 5.8 mph - N/A   Mostly Cloudy
2:54 PM 72.0 °F 59.0 °F 64% 29.88 in 10.0 mi WSW 5.8 mph - N/A   Clear
3:54 PM 71.1 °F 59.0 °F 66% 29.88 in 10.0 mi West 9.2 mph - N/A   Clear
4:54 PM 72.0 °F 59.0 °F 64% 29.90 in 10.0 mi West 5.8 mph - N/A   Partly Cloudy
5:54 PM 71.1 °F 62.1 °F 73% 29.91 in 10.0 mi NNW 5.8 mph - N/A   Partly Cloudy
6:54 PM 66.0 °F 60.1 °F 81% 29.92 in 10.0 mi Calm Calm - N/A   Clear
7:54 PM 63.0 °F 60.1 °F 90% 29.94 in 10.0 mi Calm Calm - N/A   Clear
8:54 PM 63.0 °F 60.1 °F 90% 29.96 in 10.0 mi Calm Calm - N/A   Partly Cloudy
9:54 PM 63.0 °F 61.0 °F 93% 29.98 in 10.0 mi Calm Calm - N/A   Clear
10:54 PM 63.0 °F 62.1 °F 97% 29.97 in 10.0 mi Calm Calm - N/A   Mostly Cloudy
11:54 PM 63.0 °F 61.0 °F 93% 29.98 in 10.0 mi NW 3.5 mph - N/A   Clear